Overview Statistics Trail Chart Weather Telemetry Raw packets
 

This is the latest recevied weather packets stored in our database for station/object KA1JKB. If no packets are shown the sender has not sent any weather packets the latest 10 day(s).

<< 65 66 67 68 69 70 71 >>
Time Temp. Humidity Pressure Rain* Wind** Luminosity Snow
1787970059 14.44° C 99% 1019.3 hPa 0 mm - 0 W/m² -
1787969758 14.44° C 99% 1019 hPa 0 mm - 0 W/m² -
1787969458 14.44° C 99% 1019.2 hPa 0 mm - 0 W/m² -
1787969158 14.44° C 98% 1019.1 hPa 0 mm - 0 W/m² -
1787968853 14.44° C 98% 1019.2 hPa 0 mm - 0 W/m² -
1787968552 14.44° C 98% 1019.3 hPa 0 mm - 0 W/m² -
1787968247 15° C 98% 1019 hPa 0 mm - 0 W/m² -
1787967943 15° C 98% 1019.1 hPa 0 mm - 0 W/m² -
1787967639 15.56° C 98% 1018.8 hPa 0 mm - 0 W/m² -
1787967338 15° C 98% 1019 hPa 0 mm - 0 W/m² -
1787967035 15.56° C 98% 1018.8 hPa 0 mm - 0 W/m² -
1787966731 15.56° C 97% 1018.7 hPa 0 mm - 0 W/m² -
1787966432 15° C 97% 1018.5 hPa 0 mm - 0 W/m² -
1787966131 15.56° C 97% 1018.3 hPa 0 mm - 0 W/m² -
1787965831 15.56° C 96% 1018.2 hPa 0 mm - 0 W/m² -
1787965526 15.56° C 96% 1018.1 hPa 0 mm - 0 W/m² -
1787965222 16.11° C 96% 1018.1 hPa 0 mm - 0 W/m² -
1787964915 16.11° C 95% 1018.2 hPa 0 mm - 0 W/m² -
1787964610 16.67° C 94% 1017.8 hPa 0 mm - 0 W/m² -
1787964304 16.67° C 93% 1017.9 hPa 0 mm - 0 W/m² -
1787964003 16.67° C 92% 1018.1 hPa 0 mm - 0 W/m² -
1787963698 17.22° C 91% 1018.2 hPa 0 mm - 0 W/m² -
1787963398 17.78° C 91% 1017.9 hPa 0 mm - 0 W/m² -
1787963094 18.33° C 89% 1018.2 hPa 0 mm - 0 W/m² -
1787962793 18.89° C 88% 1018.4 hPa 0 mm - 1 W/m² -

* Rain latest hour (hover to see other rain measurements)
** Current wind speed in m/s (hover to see current wind gust speed)